Regional Weather Roundup
Issued by NWS

Home | Current Version | Previous Version | Graphics & Text | Print | Product List | Glossary On
Versions: 1 2 3 4 5 6 7 8 9 10 11 12 13 14 15 16 17 18 19 20 21 22 23 24 25 26 27 28 29 30 31 32 33 34 35 36 37 38 39 40 41 42 43 44 45 46 47 48 49 50
000
ASUS43 KMPX 060501
RWRMN
WEATHER ROUNDUP FOR MINNESOTA
NATIONAL WEATHER SERVICE TWIN CITIES/CHANHASSEN MN
1200 AM CDT MON JUL 06 2015


NOTE: "FAIR" INDICATES FEW OR NO CLOUDS BELOW 12,000 FEET WITH NO
SIGNIFICANT WEATHER AND/OR OBSTRUCTIONS TO VISIBILITY. N/A MEANS
CURRENT SKY AND/OR WEATHER CONDITIONS ARE NOT AVAILABLE.

MNZ060>063-068>070-060600-
   Twin Cities Metro

CITY           SKY/WX    TMP DP  RH WIND       PRES   REMARKS
TWIN CITIES    CLOUDY    80  66  62 S14G22    29.82R
ST PAUL        CLOUDY    76  68  76 SE7       29.83R
CRYSTAL        LGT RAIN  80  67  64 S13G24    29.81R
BLAINE         CLOUDY    81  66  61 S15       29.82R
LAKEVILLE      CLOUDY    75  66  73 S10G17    29.82R
EDEN PRAIRIE   CLOUDY    78  67  68 S13G20    29.80R
SOUTH ST PAUL  CLOUDY    77  66  69 S9        29.82R
LAKE ELMO      CLOUDY    75  68  78 S7        29.85R
$$
MNZ001>005-007-008-013>017-022>024-027-028-060600-
   Northwest Minnesota

CITY           SKY/WX    TMP DP  RH WIND       PRES   REMARKS
BEMIDJI        PTCLDY    64  63  95 N6        29.85F
HALLOCK        MOCLDY    63  59  88 N7        29.89R FOG
ROSEAU         MOCLDY    63  57  82 NW5       29.88R HAZE
WARROAD        MOCLDY    61  57  88 W5        29.88R FOG
THIEF RVR FALL CLOUDY    64  61  88 NW6       29.90R
CROOKSTON      CLOUDY    64  61  88 N6        29.90R FOG
FOSSTON        MOCLDY    63  61  94 NW6       29.89S FOG
DETROIT LAKES  PTCLDY    66  64  94 N9        29.89R
MOORHEAD       MOCLDY    68  63  83 N12G21    29.89R
PARK RAPIDS    PTCLDY    69  63  81 N10       29.86R
MAHNOMEN       CLOUDY    67  64  90 N9        29.88R
$$
MNZ006-009>011-018-025>026-060600-
   North Central Minnesota

CITY           SKY/WX    TMP DP  RH WIND       PRES   REMARKS
BAUDETTE       CLOUDY    64  59  83 NW8       29.85R HAZE
FLAG ISLAND    MOCLDY    66  61  82 NW14      29.84R HAZE
INTL FALLS     CLOUDY    63  59  87 N6        29.83R
WASKISH        CLEAR     64  63  94 NW5       29.87R FOG
BIG FORK       CLEAR     64  61  88 CALM      29.87R
LONGVILLE      CLOUDY    68  66  94 N3        29.84R
GRAND RAPIDS   CLOUDY    68  64  88 NW8       29.86R
COOK           PTCLDY    64  64 100 CALM      29.83S
WALKER         FAIR      66  64  95 N7        29.83F
$$
MNZ012-019>021-037-060600-
   Northeast Minnesota

CITY           SKY/WX    TMP DP  RH WIND       PRES   REMARKS
DULUTH         TSTM      67  65  93 S5        29.84R
ELY            MOCLDY    66  64  94 CALM      29.81S
HIBBING        MOCLDY    66  64  93 CALM      29.84R
DULUTH HARBOR  RAIN      66  66 100 S8        29.84R
TWO HARBORS    CLOUDY    68  63  83 W5          N/A
SILVER BAY     CLOUDY    66  64  94 CALM      29.79S
GRAND MARAIS     N/A     61  60  97 CALM      29.77F
G MARAIS ARPRT RAIN      63  61  94 CALM      29.82F
$$
MNZ029>031-032-039>041-046>048-054>057-064-060600-
   West Central Minnesota

CITY           SKY/WX    TMP DP  RH WIND       PRES   REMARKS
FERGUS FALLS   MOCLDY    70  64  83 N5        29.86S
WHEATON        CLOUDY    68  64  88 N10       29.86F
MORRIS         RAIN      70  68  94 NW5       29.83F
ALEXANDRIA     LGT RAIN  70  67  90 N12       29.88R
ELBOW LAKE     MOCLDY    71  66  85 N7        29.86F
WADENA         CLOUDY    70  64  83 N5        29.87R
GLENWOOD       LGT RAIN  70  68  94 NW12      29.86S
APPLETON       CLOUDY    72  66  83 N5        29.80F
BENSON         CLOUDY    70  64  83 NE7       29.84R
ORTONVILLE     CLOUDY    72  66  83 N13       29.81F
MADISON        LGT RAIN  70  66  88 N9        29.82F
WILLMAR        MOCLDY    72  68  88 W9G21     29.82S
$$
MNZ033>034-036-042>043-049>051-058-059-060600-
   Central Minnesota

CITY           SKY/WX    TMP DP  RH WIND       PRES   REMARKS
ST CLOUD       TSTM      72  69  90 W13G28    29.85R FOG
SAUK CENTRE    CLOUDY    71  67  87 W9G18     29.86R
PAYNESVILLE    CLOUDY    69  67  96 W12G21    29.84R
AITKIN         MOCLDY    68  63  83 CALM      29.83R
PINE RIVER       N/A     70  66  88 N5        29.88R
BRAINERD       MOCLDY    69  67  93 N7        29.85R
STAPLES        MOCLDY    68  66  94 N12       29.86R
LONG PRAIRIE   MOCLDY    70  66  88 SW5       29.87R
LITTLE FALLS   CLOUDY    70  68  94 S3        29.86R
LITCHFIELD     LGT RAIN  79  73  83 SW3       29.80R
BUFFALO        CLOUDY    78  67  68 S7        29.82R
MAPLE LAKE     LGT RAIN  78  71  78 S6        29.82R
$$
MNZ037-044-045-052-053-060600-
   East Central Minnesota

CITY           SKY/WX    TMP DP  RH WIND       PRES   REMARKS
PRINCETON      CLOUDY    81  70  69 S13G18    29.79S
MORA           TSTM      75  68  78 W10G16    29.86R
CAMBRIDGE      CLOUDY    81  66  61 S12G17    29.80R
RUSH CITY      CLOUDY    76  67  73 S8        29.83R THUNDER
MOOSE LAKE     TSTM      66  64  94 CALM      29.81F
HINCKLEY       HVY RAIN  70  68  94 N14G21    29.86R VSB 1
CLOQUET        CLOUDY    66  64  94 CALM      29.83R
MCGREGOR       CLOUDY    68  66  94 CALM      29.83F
$$
MNZ071>073-080-081-089-090-097-098-060600-
   Southwest Minnesota

CITY           SKY/WX    TMP DP  RH WIND       PRES   REMARKS
GRANITE FALLS  TSTM      71  68  92 NW14G30   29.83R
CANBY          RAIN      70  67  91 N8        29.84R
MARSHALL       CLOUDY    72  64  78 N21G29    29.78S THUNDER
REDWOOD FALLS  LGT RAIN  78  71  79 SW8       29.75F
OLIVIA         CLOUDY    73  68  83 NW16G25   29.80R
PIPESTONE      CLOUDY    73  64  73 N20G32    29.83R THUNDER
WINDOM         CLOUDY    77  70  78 S8        29.77F
WORTHINGTON    CLOUDY    75  68  78 SE8       29.80S
JACKSON        CLOUDY    77  70  78 S12       29.80F
TRACY          CLOUDY    78  72  83 SE7       29.77F
SLAYTON        CLOUDY    77  71  82 CALM      29.80S
$$
MNZ065>067-074>077-082>085-091>093-060600-
   South Central Minnesota

CITY           SKY/WX    TMP DP  RH WIND       PRES   REMARKS
MANKATO        CLOUDY    75  66  73 S15G21    29.78F
NEW ULM        CLOUDY    75  70  83 S8        29.76F
ST JAMES       CLOUDY    79  72  78 SE10      29.78F
FAIRMONT       CLOUDY    75  64  69 S14       29.79F
GLENCOE        CLOUDY    78  71  77 S9        29.79R
FARIBAULT      RAIN      75  68  78 S12G18    29.82F
OWATONNA       CLOUDY    75  66  73 S15G22    29.82F
WASECA         CLOUDY    73  64  73 S16G23    29.82F
ALBERT LEA     CLOUDY    75  66  73 S14       29.84F
$$
MNZ078>079-086>088-094>096-060600-
   Southeast Minnesota

CITY           SKY/WX    TMP DP  RH WIND       PRES   REMARKS
ROCHESTER      MOCLDY    72  67  84 S15       29.87F
RED WING       CLOUDY    77  66  69 CALM      29.84R
STANTON        CLOUDY    75  66  73 S6        29.80F
DODGE CENTER   CLOUDY    73  66  78 S17G26    29.85F
WINONA         PTCLDY    73  64  73 S7        29.86F
AUSTIN         MOCLDY    73  68  83 S9        29.87F
PRESTON        PTCLDY    70  66  87 S12       29.90F
$$
ABBREVIATIONS USED IN REMARKS
   TC - TEMPERATURES IN CELSIUS
  WCI - WIND CHILL INDEX
   HX - HEAT INDEX
  VSB - VISIBILITY
$$


USA.gov is the U.S. government's official web portal to all federal, state and local government web resources and services.